カタログに戻る

HISPASAT 1C

運用中通信GEO
NORAD 26071·PAYLOAD·🇪🇸 Spain

打ち上げ Feb 3, 2000 から Cape Canaveral Space Force Station

Loading…

TLE

最新Source: Space-Track

元期: Sep 14, 2026, 12:38 UTC

1 26071U 00007A   26257.52687968 -.00000156  00000-0  00000-0 0  9999
2 26071   8.6057  62.6139 0006697 182.2638 117.3400  0.99206856 48170

AllMySatでHISPASAT 1Cをリアルタイム追跡

Download on the App Store